HB9BA-8 Weather Reports


time (UTC)temp
C
wind
direction
speed
KPH
gust
KPH
rain 1hr
cm
rain 24hr
cm
rain mn
cm
humidity
%
barometer
mb
20260505190051 17 0 0.0 0.0 0.00 0.00 0.00 35 1006.7
20260505185327 17 0 0.0 0.0 0.00 0.00 0.00 35 1006.5
20260505184603 18 0 0.0 0.0 0.00 0.00 0.00 35 1006.6
20260505183839 18 0 0.0 0.0 0.00 0.00 0.00 35 1006.5
20260505183115 18 0 0.0 0.0 0.00 0.00 0.00 35 1006.5
20260505182351 18 0 0.0 0.0 0.00 0.00 0.00 34 1006.3
20260505181627 18 0 0.0 0.0 0.00 0.00 0.00 34 1006.3
20260505180903 18 0 0.0 0.0 0.00 0.00 0.00 34 1006.3
20260505180139 18 0 0.0 0.0 0.00 0.00 0.00 33 1006.3
20260505175415 18 0 0.0 0.0 0.00 0.00 0.00 33 1006.4
20260505174651 19 0 0.0 0.0 0.00 0.00 0.00 32 1006.5
20260505173927 19 0 0.0 0.0 0.00 0.00 0.00 33 1006.5
20260505173203 20 0 0.0 0.0 0.00 0.00 0.00 34 1006.5
20260505172439 20 0 0.0 0.0 0.00 0.00 0.00 34 1006.5
20260505171715 20 0 0.0 0.0 0.00 0.00 0.00 33 1006.6
20260505170950 19 0 0.0 0.0 0.00 0.00 0.00 34 1006.7
20260505170226 20 0 0.0 0.0 0.00 0.00 0.00 33 1006.4
20260505165502 20 0 0.0 0.0 0.00 0.00 0.00 34 1006.4
20260505164738 20 0 0.0 0.0 0.00 0.00 0.00 34 1006.5
20260505164014 20 0 0.0 0.0 0.00 0.00 0.00 34 1006.6
20260505163250 20 0 0.0 0.0 0.00 0.00 0.00 34 1006.7
20260505162526 20 0 0.0 0.0 0.00 0.00 0.00 34 1006.7
20260505161802 19 0 0.0 0.0 0.00 0.00 0.00 34 1006.6
20260505161038 19 0 0.0 0.0 0.00 0.00 0.00 34 1006.5
20260505160314 19 0 0.0 0.0 0.00 0.00 0.00 33 1006.7
20260505153338 20 0 0.0 0.0 0.00 0.00 0.00 34 1006.3
20260505152614 20 0 0.0 0.0 0.00 0.00 0.00 35 1006.3
20260505151850 20 0 0.0 0.0 0.00 0.00 0.00 35 1006.6
20260505151126 20 0 0.0 0.0 0.00 0.00 0.00 36 1006.4
20260505150402 20 0 0.0 0.0 0.00 0.00 0.00 36 1006.4
20260505140450 19 0 0.0 0.0 0.00 0.00 0.00 38 1006.5
20260505124326 21 0 0.0 0.0 0.00 0.00 0.00 35 1006.5
20260505123602 21 0 0.0 0.0 0.00 0.00 0.00 35 1006.4
20260505122838 21 0 0.0 0.0 0.00 0.00 0.00 35 1006.4
20260505122114 21 0 0.0 0.0 0.00 0.00 0.00 35 1006.5
20260505121350 21 0 0.0 0.0 0.00 0.00 0.00 35 1006.4
20260505120625 21 0 0.0 0.0 0.00 0.00 0.00 35 1006.4
20260505115902 21 0 0.0 0.0 0.00 0.00 0.00 35 1006.4
20260505115137 21 0 0.0 0.0 0.00 0.00 0.00 35 1006.4
20260505114413 21 0 0.0 0.0 0.00 0.00 0.00 36 1006.4
20260505113650 20 0 0.0 0.0 0.00 0.00 0.00 37 1006.4
20260505112925 20 0 0.0 0.0 0.00 0.00 0.00 38 1006.4
20260505112201 20 0 0.0 0.0 0.00 0.00 0.00 37 1006.5
20260505111437 20 0 0.0 0.0 0.00 0.00 0.00 37 1006.5
20260505110713 20 0 0.0 0.0 0.00 0.00 0.00 38 1006.5
20260505101525 19 0 0.0 0.0 0.00 0.00 0.00 41 1006.7
20260505100801 19 0 0.0 0.0 0.00 0.00 0.00 41 1006.6
20260505100037 19 0 0.0 0.0 0.00 0.00 0.00 41 1006.6
20260505095313 19 0 0.0 0.0 0.00 0.00 0.00 40 1006.7
20260505094549 18 0 0.0 0.0 0.00 0.00 0.00 40 1006.7
20260505093825 19 0 0.0 0.0 0.00 0.00 0.00 38 1006.7
20260505093101 19 0 0.0 0.0 0.00 0.00 0.00 38 1006.7
20260505092337 19 0 0.0 0.0 0.00 0.00 0.00 38 1006.8
20260505091613 19 0 0.0 0.0 0.00 0.00 0.00 38 1006.6
20260505090849 18 0 0.0 0.0 0.00 0.00 0.00 38 1006.4
20260505090125 18 0 0.0 0.0 0.00 0.00 0.00 38 1006.4
20260505085401 18 0 0.0 0.0 0.00 0.00 0.00 38 1006.4
20260505084637 18 0 0.0 0.0 0.00 0.00 0.00 40 1006.5
20260505083913 18 0 0.0 0.0 0.00 0.00 0.00 41 1006.5
20260505083149 18 0 0.0 0.0 0.00 0.00 0.00 41 1006.6
20260505082425 18 0 0.0 0.0 0.00 0.00 0.00 41 1006.6
20260505081701 18 0 0.0 0.0 0.00 0.00 0.00 41 1006.7
20260505080937 18 0 0.0 0.0 0.00 0.00 0.00 42 1006.7
20260505080213 18 0 0.0 0.0 0.00 0.00 0.00 43 1006.1
20260505075449 18 0 0.0 0.0 0.00 0.00 0.00 43 1007.0
20260505074725 17 0 0.0 0.0 0.00 0.00 0.00 43 1007.1
20260505074001 17 0 0.0 0.0 0.00 0.00 0.00 44 1007.2
20260505073237 17 0 0.0 0.0 0.00 0.00 0.00 45 1007.4
20260505072512 17 0 0.0 0.0 0.00 0.00 0.00 45 1007.5
20260505071748 17 0 0.0 0.0 0.00 0.00 0.00 45 1007.6
20260505071024 17 0 0.0 0.0 0.00 0.00 0.00 46 1007.7
20260505070300 17 0 0.0 0.0 0.00 0.00 0.00 45 1007.7
20260505065536 16 0 0.0 0.0 0.00 0.00 0.00 46 1007.8
20260505064812 16 0 0.0 0.0 0.00 0.00 0.00 45 1007.9
20260505064048 16 0 0.0 0.0 0.00 0.00 0.00 45 1008.0
20260505063324 16 0 0.0 0.0 0.00 0.00 0.00 45 1008.0
20260505062600 16 0 0.0 0.0 0.00 0.00 0.00 45 1008.1
20260505061836 16 0 0.0 0.0 0.00 0.00 0.00 45 1008.2
20260505061112 16 0 0.0 0.0 0.00 0.00 0.00 45 1008.2
20260505060348 16 0 0.0 0.0 0.00 0.00 0.00 45 1008.4
20260505055624 16 0 0.0 0.0 0.00 0.00 0.00 44 1008.3
20260505054900 16 0 0.0 0.0 0.00 0.00 0.00 44 1008.3
20260505054136 16 0 0.0 0.0 0.00 0.00 0.00 44 1008.3
20260505053412 16 0 0.0 0.0 0.00 0.00 0.00 43 1008.2
20260505052648 16 0 0.0 0.0 0.00 0.00 0.00 43 1008.3
20260505051924 16 0 0.0 0.0 0.00 0.00 0.00 42 1008.2
20260505051200 16 0 0.0 0.0 0.00 0.00 0.00 42 1008.2
20260505050436 16 0 0.0 0.0 0.00 0.00 0.00 42 1008.1
20260505041248 15 0 0.0 0.0 0.00 0.00 0.00 40 1008.0
20260505040524 15 0 0.0 0.0 0.00 0.00 0.00 40 1008.0
20260505035800 15 0 0.0 0.0 0.00 0.00 0.00 41 1008.1
20260505035036 15 0 0.0 0.0 0.00 0.00 0.00 40 1008.2
20260505034312 15 0 0.0 0.0 0.00 0.00 0.00 40 1008.3
20260505033548 15 0 0.0 0.0 0.00 0.00 0.00 41 1008.3
20260505032100 15 0 0.0 0.0 0.00 0.00 0.00 40 1008.1
20260505031336 15 0 0.0 0.0 0.00 0.00 0.00 40 1008.2
20260505030612 15 0 0.0 0.0 0.00 0.00 0.00 39 1008.2
20260505025848 15 0 0.0 0.0 0.00 0.00 0.00 40 1008.3
20260505025124 15 0 0.0 0.0 0.00 0.00 0.00 40 1008.4
20260505024400 15 0 0.0 0.0 0.00 0.00 0.00 39 1008.5
20260505023635 15 0 0.0 0.0 0.00 0.00 0.00 39 1008.6
20260505022911 15 0 0.0 0.0 0.00 0.00 0.00 39 1008.6
20260505022147 15 0 0.0 0.0 0.00 0.00 0.00 39 1008.6
20260505021423 15 0 0.0 0.0 0.00 0.00 0.00 39 1008.6
20260505020659 15 0 0.0 0.0 0.00 0.00 0.00 38 1008.6
20260505015935 15 0 0.0 0.0 0.00 0.00 0.00 39 1008.6
20260505015212 15 0 0.0 0.0 0.00 0.00 0.00 38 1008.6
20260505014447 15 0 0.0 0.0 0.00 0.00 0.00 38 1008.6
20260505013723 15 0 0.0 0.0 0.00 0.00 0.00 38 1008.6
20260505012959 15 0 0.0 0.0 0.00 0.00 0.00 38 1008.6
20260505012235 15 0 0.0 0.0 0.00 0.00 0.00 38 1008.6
20260505011511 15 0 0.0 0.0 0.00 0.00 0.00 38 1008.7
20260505010747 15 0 0.0 0.0 0.00 0.00 0.00 38 1008.8
20260505010023 15 0 0.0 0.0 0.00 0.00 0.00 38 1009.0
20260505005259 15 0 0.0 0.0 0.00 0.00 0.00 38 1009.0
20260505004535 15 0 0.0 0.0 0.00 0.00 0.00 38 1009.0
20260505003811 15 0 0.0 0.0 0.00 0.00 0.00 38 1009.2
20260505003047 15 0 0.0 0.0 0.00 0.00 0.00 38 1009.5
20260505002323 15 0 0.0 0.0 0.00 0.00 0.00 38 1009.6
20260505001559 15 0 0.0 0.0 0.00 0.00 0.00 38 1009.8
20260505000835 15 0 0.0 0.0 0.00 0.00 0.00 38 1009.9
20260505000111 15 0 0.0 0.0 0.00 0.00 0.00 38 1009.8
20260504235347 15 0 0.0 0.0 0.00 0.00 0.00 38 1009.9
20260504234623 15 0 0.0 0.0 0.00 0.00 0.00 39 1009.9
20260504233859 15 0 0.0 0.0 0.00 0.00 0.00 38 1009.9
20260504233135 15 0 0.0 0.0 0.00 0.00 0.00 38 1010.0
20260504232411 15 0 0.0 0.0 0.00 0.00 0.00 37 1010.0
20260504231647 15 0 0.0 0.0 0.00 0.00 0.00 37 1010.3
20260504230923 15 0 0.0 0.0 0.00 0.00 0.00 36 1010.4
20260504230159 15 0 0.0 0.0 0.00 0.00 0.00 36 1010.4
20260504225435 15 0 0.0 0.0 0.00 0.00 0.00 36 1010.4
20260504224711 15 0 0.0 0.0 0.00 0.00 0.00 36 1010.6
20260504223947 15 0 0.0 0.0 0.00 0.00 0.00 35 1010.6
20260504223223 15 0 0.0 0.0 0.00 0.00 0.00 35 1010.7
20260504222459 15 0 0.0 0.0 0.00 0.00 0.00 35 1010.6
20260504221735 15 0 0.0 0.0 0.00 0.00 0.00 36 1010.6
20260504221011 15 0 0.0 0.0 0.00 0.00 0.00 36 1010.6
20260504220247 15 0 0.0 0.0 0.00 0.00 0.00 36 1010.8
20260504215523 15 0 0.0 0.0 0.00 0.00 0.00 35 1011.0
20260504214759 15 0 0.0 0.0 0.00 0.00 0.00 35 1010.9
20260504214034 15 0 0.0 0.0 0.00 0.00 0.00 35 1010.1
20260504213310 15 0 0.0 0.0 0.00 0.00 0.00 35 1010.9
20260504212546 15 0 0.0 0.0 0.00 0.00 0.00 35 1011.0
20260504211822 16 0 0.0 0.0 0.00 0.00 0.00 35 1011.2
20260504211058 16 0 0.0 0.0 0.00 0.00 0.00 36 1011.1
20260504210334 16 0 0.0 0.0 0.00 0.00 0.00 35 1011.1
20260504205610 15 0 0.0 0.0 0.00 0.00 0.00 35 1011.1
20260504204846 16 0 0.0 0.0 0.00 0.00 0.00 35 1011.3
20260504204122 16 0 0.0 0.0 0.00 0.00 0.00 35 1011.3
20260504203358 16 0 0.0 0.0 0.00 0.00 0.00 35 1011.5
20260504202634 16 0 0.0 0.0 0.00 0.00 0.00 36 1011.6
20260504201910 17 0 0.0 0.0 0.00 0.00 0.00 36 1011.7
20260504201146 17 0 0.0 0.0 0.00 0.00 0.00 36 1011.8
20260504200422 17 0 0.0 0.0 0.00 0.00 0.00 36 1011.8
20260504195658 17 0 0.0 0.0 0.00 0.00 0.00 36 1011.7
20260504194934 17 0 0.0 0.0 0.00 0.00 0.00 35 1011.5
20260504194210 17 0 0.0 0.0 0.00 0.00 0.00 36 1011.5
20260504193446 17 0 0.0 0.0 0.00 0.00 0.00 35 1011.5
20260504192722 17 0 0.0 0.0 0.00 0.00 0.00 35 1011.5
20260504191958 17 0 0.0 0.0 0.00 0.00 0.00 34 1011.6
20260504191234 17 0 0.0 0.0 0.00 0.00 0.00 34 1011.5
20260504190510 17 0 0.0 0.0 0.00 0.00 0.00 34 1011.6